Simultaneous Nadir Overpasses (SNOs) Predictions

Prediction of SNOs between GOES-17 and LANDSAT-8 Satellite Orbit:

Table of predicted SNOs for the next 14.0 days since TLE Epoch: 6/10/2023
Index Date Time (GOES-17) GOES-17 Lat,Lon LANDSAT-8 Lat,Lon Distance(km) Time Diff (sec)
1 06/10/2023 16:59:56 -0.01,-104.73 -0.60,-101.80 331.96 80
2 06/11/2023 05:21:20 0.01,-104.69 -0.47,-107.00 262.13 80
3 06/13/2023 05:06:29 0.01,-104.70 0.12,-104.04 74.46 80
4 06/15/2023 04:54:19 0.01,-104.70 0.78,-101.09 410.94 80
5 06/15/2023 17:15:35 -0.01,-104.73 0.30,-106.25 171.69 80
6 06/17/2023 17:06:04 -0.02,-104.74 -0.32,-103.29 164.89 80
7 06/18/2023 05:27:28 0.02,-104.71 -0.80,-108.47 428.45 80
8 06/20/2023 05:15:17 0.02,-104.71 -0.16,-105.52 91.71 80
9 06/22/2023 05:00:26 0.01,-104.71 0.50,-102.56 245.41 80
10 06/22/2023 17:21:41 -0.01,-104.74 0.63,-107.71 337.75 80
